Time,TemperatureF,DewpointF,PressureIn,WindDirection,WindDirectionDegrees,WindSpeedMPH,WindSpeedGustMPH,Humidity,HourlyPrecipIn,Conditions,Clouds,dailyrainin,SoftwareType,DateUTC
2013-02-16 00:05:00,47.7,47.7,30.22,WSW,257,0.0,0.0,100,0.00,,,0.00,Wunderground v.1.15,2013-02-16 08:05:00,
2013-02-16 00:35:00,47.7,47.7,30.22,WSW,257,0.0,0.0,100,0.00,,,0.00,Wunderground v.1.15,2013-02-16 08:35:00,
2013-02-16 01:05:00,47.7,47.7,30.23,WSW,257,0.0,0.0,100,0.00,,,0.00,Wunderground v.1.15,2013-02-16 09:05:00,
2013-02-16 01:35:00,47.7,47.7,30.23,WSW,257,0.0,0.0,100,0.00,,,0.00,Wunderground v.1.15,2013-02-16 09:35:00,
2013-02-16 02:05:00,47.4,47.4,30.23,WSW,257,0.0,0.0,100,0.00,,,0.00,Wunderground v.1.15,2013-02-16 10:05:00,
2013-02-16 02:35:00,47.3,47.3,30.23,WSW,257,0.0,0.0,100,0.00,,,0.00,Wunderground v.1.15,2013-02-16 10:35:00,
2013-02-16 03:05:00,47.1,47.1,30.22,WSW,257,0.0,0.0,100,0.00,,,0.00,Wunderground v.1.15,2013-02-16 11:05:00,
2013-02-16 03:35:00,47.0,47.0,30.22,WSW,257,0.0,0.0,100,0.00,,,0.00,Wunderground v.1.15,2013-02-16 11:35:00,
2013-02-16 04:05:00,47.0,47.0,30.22,WSW,257,0.0,0.0,100,0.00,,,0.00,Wunderground v.1.15,2013-02-16 12:05:00,
2013-02-16 04:35:00,47.0,47.0,30.23,WSW,257,0.0,0.0,100,0.00,,,0.00,Wunderground v.1.15,2013-02-16 12:35:00,
2013-02-16 05:05:00,46.8,46.8,30.23,WSW,257,0.0,0.0,100,0.00,,,0.00,Wunderground v.1.15,2013-02-16 13:05:00,
2013-02-16 05:35:00,46.5,46.5,30.23,WSW,257,0.0,0.0,100,0.00,,,0.00,Wunderground v.1.15,2013-02-16 13:35:00,
2013-02-16 06:05:00,46.2,46.2,30.24,WSW,257,0.0,0.0,100,0.00,,,0.00,Wunderground v.1.15,2013-02-16 14:05:00,
2013-02-16 06:35:00,46.1,46.1,30.24,WSW,257,0.0,0.0,100,0.00,,,0.00,Wunderground v.1.15,2013-02-16 14:35:00,
2013-02-16 07:05:00,46.0,46.0,30.24,WSW,257,0.0,0.0,100,0.00,,,0.01,Wunderground v.1.15,2013-02-16 15:05:00,
2013-02-16 07:35:00,46.1,46.1,30.25,WSW,257,0.0,0.0,100,0.00,,,0.02,Wunderground v.1.15,2013-02-16 15:35:00,
2013-02-16 08:05:00,46.2,46.2,30.25,WSW,257,0.0,0.0,100,0.00,,,0.02,Wunderground v.1.15,2013-02-16 16:05:00,
2013-02-16 08:35:00,47.0,47.0,30.26,WSW,257,0.0,0.0,100,0.00,,,0.02,Wunderground v.1.15,2013-02-16 16:35:00,
2013-02-16 09:05:00,47.4,47.4,30.27,SSW,206,0.0,0.0,100,0.00,,,0.02,Wunderground v.1.15,2013-02-16 17:05:00,
2013-02-16 09:35:00,47.7,47.7,30.27,SSW,206,0.0,0.0,100,0.00,,,0.02,Wunderground v.1.15,2013-02-16 17:35:00,
2013-02-16 10:05:00,47.9,47.9,30.28,SSW,206,0.0,0.0,100,0.00,,,0.02,Wunderground v.1.15,2013-02-16 18:05:00,
2013-02-16 10:35:00,48.3,48.3,30.27,SSW,206,0.0,0.0,100,0.00,,,0.02,Wunderground v.1.15,2013-02-16 18:35:00,
2013-02-16 11:05:00,49.4,49.4,30.27,SSW,206,0.0,0.0,100,0.00,,,0.02,Wunderground v.1.15,2013-02-16 19:05:00,
2013-02-16 11:35:00,49.4,48.9,30.28,SSW,206,0.0,0.0,98,0.00,,,0.02,Wunderground v.1.15,2013-02-16 19:35:00,
2013-02-16 12:05:00,50.4,49.6,30.28,SSW,206,0.0,0.0,97,0.00,,,0.02,Wunderground v.1.15,2013-02-16 20:05:00,
2013-02-16 12:35:00,51.1,49.7,30.27,SSW,206,0.0,0.0,95,0.00,,,0.02,Wunderground v.1.15,2013-02-16 20:35:00,
2013-02-16 13:05:00,51.9,50.2,30.26,SSW,206,0.0,0.0,94,0.00,,,0.02,Wunderground v.1.15,2013-02-16 21:05:00,
2013-02-16 13:35:00,52.2,50.8,30.26,NNE,25,0.0,0.0,95,0.00,,,0.02,Wunderground v.1.15,2013-02-16 21:35:00,
2013-02-16 14:05:00,52.9,50.9,30.25,NE,37,0.0,0.0,93,0.00,,,0.02,Wunderground v.1.15,2013-02-16 22:05:00,
2013-02-16 14:35:00,52.8,50.8,30.25,SSW,193,0.0,0.0,93,0.00,,,0.02,Wunderground v.1.15,2013-02-16 22:35:00,
2013-02-16 15:05:00,54.2,50.7,30.25,South,179,0.0,0.0,88,0.00,,,0.02,Wunderground v.1.15,2013-02-16 23:05:00,
2013-02-16 15:35:00,52.3,49.8,30.25,South,191,0.0,0.0,91,0.00,,,0.02,Wunderground v.1.15,2013-02-16 23:35:00,
2013-02-16 16:05:00,52.3,49.8,30.26,South,191,0.0,0.0,91,0.00,,,0.02,Wunderground v.1.15,2013-02-17 00:05:00,
2013-02-16 16:35:00,51.3,48.8,30.25,SSE,151,0.0,0.0,91,0.00,,,0.02,Wunderground v.1.15,2013-02-17 00:35:00,
2013-02-16 17:05:00,50.4,48.7,30.25,SSE,151,0.0,0.0,94,0.00,,,0.02,Wunderground v.1.15,2013-02-17 01:05:00,
2013-02-16 17:35:00,49.1,48.0,30.25,SSE,151,0.0,0.0,96,0.00,,,0.02,Wunderground v.1.15,2013-02-17 01:35:00,
2013-02-16 18:05:00,47.4,46.0,30.24,SSE,151,0.0,0.0,95,0.00,,,0.02,Wunderground v.1.15,2013-02-17 02:05:00,
2013-02-16 18:35:00,46.1,45.0,30.25,SSE,151,0.0,0.0,96,0.00,,,0.02,Wunderground v.1.15,2013-02-17 02:35:00,
2013-02-16 19:05:00,45.5,45.5,30.25,SSE,151,0.0,0.0,100,0.00,,,0.02,Wunderground v.1.15,2013-02-17 03:05:00,
2013-02-16 19:35:00,45.1,45.1,30.25,ENE,64,0.0,0.0,100,0.00,,,0.02,Wunderground v.1.15,2013-02-17 03:35:00,
2013-02-16 20:05:00,43.8,43.8,30.25,ENE,64,0.0,0.0,100,0.00,,,0.02,Wunderground v.1.15,2013-02-17 04:05:00,
2013-02-16 20:35:00,44.1,44.1,30.26,ENE,64,0.0,0.0,100,0.00,,,0.02,Wunderground v.1.15,2013-02-17 04:35:00,
2013-02-16 21:05:00,44.5,44.5,30.26,NE,51,0.0,1.0,100,0.00,,,0.02,Wunderground v.1.15,2013-02-17 05:05:00,
2013-02-16 21:35:00,44.2,44.2,30.27,ENE,71,0.0,0.0,100,0.00,,,0.02,Wunderground v.1.15,2013-02-17 05:35:00,
2013-02-16 22:05:00,43.9,43.9,30.27,ENE,71,0.0,0.0,100,0.00,,,0.02,Wunderground v.1.15,2013-02-17 06:05:00,
2013-02-16 22:35:00,43.9,43.9,30.27,ENE,71,0.0,0.0,100,0.00,,,0.02,Wunderground v.1.15,2013-02-17 06:35:00,
2013-02-16 23:05:00,42.9,42.9,30.26,ENE,71,0.0,0.0,100,0.00,,,0.02,Wunderground v.1.15,2013-02-17 07:05:00,
2013-02-16 23:35:00,41.6,41.6,30.26,ENE,71,0.0,0.0,100,0.00,,,0.02,Wunderground v.1.15,2013-02-17 07:35:00,